Location: La Tine
(46.4708°N, 7.0525°E)
Time: 07:54:58
(UTC+00:00)

Meteor 1-24 Rocket - Pass Details

Date: 18 January 2021
Orbit: 790 x 927 km, 81.3° (Epoch: 24 February)

Event Time Altitude Azimuth Distance (km) Brightness Sun altitude
Exits shadow 04:52:21 51° 306° (NW) 1,026 3.7 -23.1°
Maximum altitude 04:53:18 59° 264° (W) 946 3.6 -23.0°
Drops below altitude 10° 04:58:46 10° 186° (S) 2,460 6.1 -22.1°
Sets 05:01:14 0° 183° (S) 3,413 6.9 -21.6°
